Location: Bayview
(38.0070°N, 122.3188°W)
Time: 17:12:15
(UTC+00:00)

Cosmos 1378 - Pass Details

Date: 29 June 2022
Orbit: 482 x 489 km, 82.5° (Epoch: 09 August)

Event Time Altitude Azimuth Distance (km) Brightness Sun altitude
Rises 12:09:02 0° 355° (N) 2,578 7.2 -7.4°
Reaches altitude 10° 12:11:10 10° 359° (N) 1,692 6.3 -7.1°
Maximum altitude 12:14:51 66° 82° (E) 539 3.5 -6.5°
Drops below altitude 10° 12:18:30 10° 165° (SSE) 1,678 5.6 -6.0°
Sets 12:20:37 0° 168° (SSE) 2,554 6.5 -5.6°
